When you browse on this site, cookies collect data to enhance your experience and personalize the content and advertising you see.
Visit our Privacy Policy to learn more. By continuing to use the site, you agree to this use of cookies and data.
  • In Hungary
  • List of Countries
  • For 7 days
  • Water Temperature
  • Satellite Maps
  • Weather Map
  • News
  • Weather Widgets
  • user-avatar
    Login

    Hourly Weather Yeşilhisar

    Today, 22 February, Friday

    Time Temperature Precipitation Wind Pressure Humidity
    00:00 +3°C° 0 mm 1 mps 658 mmHg 56%
    01:00 +3°C° 0 mm 1 mps 658 mmHg 57%
    02:00 +3°C° 0 mm 1 mps 658 mmHg 59%
    03:00 +2°C° 0 mm 1 mps 658 mmHg 59%
    04:00 +2°C° 0 mm 1 mps 657 mmHg 59%
    05:00 +2°C° 0 mm 1 mps 657 mmHg 59%
    06:00 +3°C° 0 mm 1 mps 658 mmHg 56%
    07:00 +3°C° 0 mm 1 mps 658 mmHg 53%
    08:00 +4°C° 0 mm 1 mps 658 mmHg 51%
    09:00 +5°C° 0 mm 1 mps 658 mmHg 48%
    10:00 +6°C° 0 mm 1 mps 658 mmHg 44%
    11:00 +7°C° 0 mm 1 mps 658 mmHg 41%
    12:00 +8°C° 0 mm 1 mps 657 mmHg 40%
    13:00 +8°C° 0 mm 1 mps 657 mmHg 39%
    14:00 +8°C° 0 mm 2 mps 656 mmHg 38%
    15:00 +7°C° 0 mm 2 mps 656 mmHg 41%
    16:00 +7°C° 0 mm 2 mps 656 mmHg 43%
    17:00 +7°C° 0 mm 2 mps 656 mmHg 46%
    18:00 +6°C° 0 mm 2 mps 656 mmHg 52%
    19:00 +5°C° 0 mm 2 mps 656 mmHg 58%
    20:00 +4°C° 0 mm 2 mps 656 mmHg 65%
    21:00 +4°C° 0 mm 2 mps 656 mmHg 69%
    22:00 +2°C° 0 mm 3 mps 656 mmHg 73%
    23:00 +2°C° 0 mm 3 mps 656 mmHg 77%

    Tomorrow, 23 February, Saturday

    Time Temperature Precipitation Wind Pressure Humidity
    00:00 +2°C° 0 mm 3 mps 656 mmHg 78%
    01:00 +1°C° 0 mm 3 mps 656 mmHg 79%
    02:00 +2°C° 0 mm 2 mps 656 mmHg 81%
    03:00 +2°C° 0 mm 2 mps 656 mmHg 80%
    04:00 +2°C° 0 mm 2 mps 656 mmHg 80%
    05:00 +1°C° 0 mm 2 mps 656 mmHg 80%
    06:00 +2°C° 0 mm 2 mps 657 mmHg 76%
    07:00 +3°C° 0 mm 2 mps 657 mmHg 72%
    08:00 +3°C° 0 mm 3 mps 658 mmHg 68%
    09:00 +4°C° 0 mm 3 mps 658 mmHg 61%
    10:00 +7°C° 0 mm 3 mps 658 mmHg 54%
    11:00 +7°C° 0 mm 4 mps 659 mmHg 47%
    12:00 +7°C° 0 mm 4 mps 659 mmHg 45%
    13:00 +9°C° 0 mm 3 mps 659 mmHg 44%
    14:00 +9°C° 0 mm 3 mps 658 mmHg 42%
    15:00 +9°C° 0 mm 3 mps 658 mmHg 46%
    16:00 +8°C° 0 mm 3 mps 658 mmHg 49%
    17:00 +8°C° 0 mm 3 mps 658 mmHg 53%
    18:00 +7°C° 0 mm 3 mps 658 mmHg 58%
    19:00 +6°C° 0 mm 2 mps 659 mmHg 63%
    20:00 +5°C° 0 mm 2 mps 659 mmHg 69%
    21:00 +5°C° 0 mm 2 mps 659 mmHg 71%
    22:00 +4°C° 0 mm 2 mps 659 mmHg 73%
    23:00 +4°C° 0 mm 2 mps 659 mmHg 75%

    Day after tomorrow, 24 February, Sunday

    Time Temperature Precipitation Wind Pressure Humidity
    00:00 +4°C° 0 mm 2 mps 659 mmHg 76%
    01:00 +4°C° 0 mm 2 mps 659 mmHg 77%
    02:00 +4°C° 0 mm 1 mps 659 mmHg 78%
    03:00 +4°C° 0 mm 1 mps 659 mmHg 79%
    04:00 +4°C° 0 mm 1 mps 659 mmHg 79%
    05:00 +3°C° 0 mm 1 mps 658 mmHg 80%
    06:00 +4°C° 0 mm 1 mps 659 mmHg 76%
    07:00 +5°C° 0 mm 1 mps 659 mmHg 72%
    08:00 +5°C° 0 mm 1 mps 660 mmHg 67%
    09:00 +6°C° 0 mm 1 mps 660 mmHg 62%
    10:00 +6°C° 0 mm 0 mps 660 mmHg 56%
    11:00 +7°C° 0 mm 0 mps 660 mmHg 51%
    12:00 +8°C° 0 mm 0 mps 660 mmHg 50%
    13:00 +8°C° 0 mm 0 mps 660 mmHg 49%
    14:00 +9°C° 0 mm 1 mps 659 mmHg 48%
    15:00 +9°C° 0.1 mm 1 mps 659 mmHg 49%
    16:00 +9°C° 0.1 mm 1 mps 659 mmHg 51%
    17:00 +8°C° 0.1 mm 1 mps 659 mmHg 52%
    18:00 +8°C° 0 mm 1 mps 660 mmHg 57%
    19:00 +7°C° 0 mm 1 mps 660 mmHg 62%
    20:00 +5°C° 0 mm 0 mps 660 mmHg 67%
    21:00 +5°C° 0 mm 0 mps 660 mmHg 69%
    22:00 +4°C° 0 mm 0 mps 661 mmHg 72%
    23:00 +3°C° 0 mm 0 mps 661 mmHg 75%

    25 February, Monday

    Time Temperature Precipitation Wind Pressure Humidity
    00:00 +4°C° 0 mm 1 mps 661 mmHg 78%
    01:00 +3°C° 0 mm 1 mps 661 mmHg 80%
    02:00 +3°C° 0 mm 1 mps 660 mmHg 83%
    03:00 +3°C° 0 mm 1 mps 660 mmHg 85%
    04:00 +2°C° 0 mm 1 mps 660 mmHg 87%
    05:00 +2°C° 0 mm 1 mps 660 mmHg 90%
    06:00 +2°C° 0 mm 1 mps 660 mmHg 86%
    07:00 +3°C° 0 mm 1 mps 661 mmHg 82%
    08:00 +3°C° 0 mm 1 mps 661 mmHg 79%
    09:00 +3°C° 0 mm 2 mps 661 mmHg 74%
    10:00 +4°C° 0 mm 2 mps 661 mmHg 69%
    11:00 +5°C° 0 mm 2 mps 660 mmHg 63%
    12:00 +6°C° 0 mm 2 mps 660 mmHg 59%
    13:00 +7°C° 0 mm 2 mps 660 mmHg 55%
    14:00 +8°C° 0 mm 2 mps 659 mmHg 51%
    15:00 +8°C° 0 mm 2 mps 659 mmHg 52%
    16:00 +7°C° 0 mm 2 mps 658 mmHg 52%
    17:00 +7°C° 0 mm 2 mps 658 mmHg 53%
    18:00 +6°C° 0 mm 2 mps 658 mmHg 57%
    19:00 +5°C° 0 mm 2 mps 658 mmHg 61%
    20:00 +4°C° 0 mm 2 mps 658 mmHg 66%
    21:00 +4°C° 0 mm 2 mps 657 mmHg 68%
    22:00 +3°C° 0 mm 2 mps 657 mmHg 69%
    23:00 +3°C° 0 mm 2 mps 657 mmHg 71%

    26 February, Tuesday

    Time Temperature Precipitation Wind Pressure Humidity
    00:00 +2°C° 0 mm 2 mps 656 mmHg 71%
    01:00 +2°C° 0 mm 2 mps 656 mmHg 70%
    02:00 +2°C° 0 mm 2 mps 655 mmHg 70%
    03:00 +2°C° 0 mm 2 mps 655 mmHg 69%
    04:00 +3°C° 0 mm 1 mps 654 mmHg 67%
    05:00 +3°C° 0 mm 1 mps 653 mmHg 66%
    06:00 +2°C° 0 mm 2 mps 653 mmHg 65%
    07:00 +2°C° 0 mm 2 mps 653 mmHg 63%
    08:00 +3°C° 0 mm 2 mps 653 mmHg 62%
    09:00 +3°C° 0.1 mm 2 mps 652 mmHg 61%
    10:00 +3°C° 0.1 mm 3 mps 652 mmHg 60%
    11:00 +4°C° 0.1 mm 3 mps 652 mmHg 59%
    12:00 +4°C° 0.3 mm 3 mps 651 mmHg 61%
    13:00 +5°C° 0.3 mm 3 mps 651 mmHg 62%
    14:00 +6°C° 0.3 mm 2 mps 650 mmHg 63%
    15:00 +5°C° 0.7 mm 2 mps 650 mmHg 67%
    16:00 +4°C° 0.7 mm 3 mps 649 mmHg 72%
    17:00 +3°C° 0.7 mm 3 mps 649 mmHg 76%
    18:00 +2°C° 0.3 mm 3 mps 649 mmHg 73%
    19:00 +2°C° 0.3 mm 3 mps 649 mmHg 70%
    20:00 +1°C° 0.3 mm 3 mps 649 mmHg 67%
    21:00 0°C° 0 mm 3 mps 649 mmHg 67%
    22:00 -1°C° 0 mm 3 mps 648 mmHg 68%
    23:00 -2°C° 0 mm 2 mps 648 mmHg 69%

    27 February, Wednesday

    Time Temperature Precipitation Wind Pressure Humidity
    00:00 -2°C° 0 mm 2 mps 648 mmHg 70%
    01:00 -2°C° 0 mm 2 mps 648 mmHg 72%
    02:00 -2°C° 0 mm 2 mps 648 mmHg 74%
    03:00 -2°C° 0 mm 2 mps 647 mmHg 76%
    04:00 -2°C° 0 mm 2 mps 647 mmHg 77%
    05:00 -3°C° 0 mm 2 mps 647 mmHg 78%
    06:00 -2°C° 0.1 mm 3 mps 647 mmHg 78%
    07:00 -2°C° 0.1 mm 3 mps 648 mmHg 77%
    08:00 -3°C° 0.1 mm 4 mps 648 mmHg 77%
    09:00 -2°C° 0.2 mm 4 mps 648 mmHg 74%
    10:00 -2°C° 0.2 mm 4 mps 648 mmHg 72%
    11:00 -1°C° 0.2 mm 4 mps 647 mmHg 70%
    12:00 -1°C° 0.2 mm 4 mps 647 mmHg 69%
    13:00 -1°C° 0.2 mm 5 mps 647 mmHg 69%
    14:00 -1°C° 0.2 mm 5 mps 647 mmHg 69%
    15:00 -1°C° 0.2 mm 5 mps 647 mmHg 69%
    16:00 -1°C° 0.2 mm 5 mps 647 mmHg 70%
    17:00 -2°C° 0.2 mm 4 mps 647 mmHg 71%
    18:00 -2°C° 0.2 mm 4 mps 647 mmHg 73%
    19:00 -2°C° 0.2 mm 3 mps 648 mmHg 75%
    20:00 -2°C° 0.2 mm 3 mps 648 mmHg 77%
    21:00 -2°C° 0.1 mm 3 mps 648 mmHg 76%
    22:00 -3°C° 0.1 mm 2 mps 648 mmHg 74%
    23:00 -3°C° 0.1 mm 2 mps 648 mmHg 72%
    Show more